Time,TemperatureF,DewpointF,PressureIn,WindDirection,WindDirectionDegrees,WindSpeedMPH,WindSpeedGustMPH,Humidity,HourlyPrecipIn,Conditions,Clouds,dailyrainin,SoftwareType,DateUTC
2013-04-20 00:01:00,47.1,44.0,30.25,SW,220,1.0,8.0,89,0.00,,---,0.79,VWS V13.00,2013-04-20 07:01:00,
2013-04-20 00:06:00,47.1,44.0,30.25,SSE,165,0.0,8.0,89,0.00,,---,0.79,VWS V13.00,2013-04-20 07:06:00,
2013-04-20 00:11:00,47.1,44.0,30.25,SSW,200,0.0,7.0,89,0.00,,---,0.00,VWS V13.00,2013-04-20 07:11:00,
2013-04-20 00:16:00,47.1,44.0,30.25,SSW,193,0.0,7.0,89,0.00,,---,0.00,VWS V13.00,2013-04-20 07:16:00,
2013-04-20 00:21:00,47.0,43.9,30.25,SE,143,0.0,7.0,89,0.00,,---,0.00,VWS V13.00,2013-04-20 07:21:00,
2013-04-20 00:26:00,47.0,43.9,30.25,SSW,209,1.0,7.0,89,0.00,,---,0.00,VWS V13.00,2013-04-20 07:26:00,
2013-04-20 00:31:00,47.0,43.9,30.25,SSW,209,2.0,7.0,89,0.00,,---,0.00,VWS V13.00,2013-04-20 07:31:00,
2013-04-20 00:36:00,47.0,43.9,30.25,SSW,208,1.0,7.0,89,0.00,,---,0.00,VWS V13.00,2013-04-20 07:36:00,
2013-04-20 00:41:00,47.0,43.9,30.25,SSE,160,0.0,5.0,89,0.00,,---,0.00,VWS V13.00,2013-04-20 07:41:00,
2013-04-20 00:46:00,47.0,43.9,30.25,SW,215,0.0,7.0,89,0.00,,---,0.00,VWS V13.00,2013-04-20 07:46:00,
2013-04-20 00:51:00,47.0,43.9,30.25,SSW,192,3.0,7.0,89,0.00,,---,0.00,VWS V13.00,2013-04-20 07:51:00,
2013-04-20 00:56:00,47.0,43.9,30.25,SSW,195,7.0,7.0,89,0.00,,---,0.00,VWS V13.00,2013-04-20 07:56:00,
2013-04-20 01:01:00,47.0,43.9,30.25,SW,230,0.0,7.0,89,0.00,,---,0.00,VWS V13.00,2013-04-20 08:01:00,
2013-04-20 01:06:00,47.0,43.9,30.25,SSW,213,2.0,7.0,89,0.00,,---,0.00,VWS V13.00,2013-04-20 08:06:00,
2013-04-20 01:11:00,47.0,43.9,30.25,SSW,212,0.0,3.0,89,0.00,,---,0.00,VWS V13.00,2013-04-20 08:11:00,
2013-04-20 01:16:00,47.0,43.9,30.25,SSW,193,1.0,6.0,89,0.00,,---,0.00,VWS V13.00,2013-04-20 08:16:00,
2013-04-20 01:21:00,47.0,43.9,30.26,SSW,193,0.0,6.0,89,0.00,,---,0.00,VWS V13.00,2013-04-20 08:21:00,
2013-04-20 01:26:00,47.0,43.9,30.26,SSW,212,2.0,6.0,89,0.00,,---,0.00,VWS V13.00,2013-04-20 08:26:00,
2013-04-20 01:31:00,47.0,43.9,30.26,SW,215,0.0,6.0,89,0.00,,---,0.00,VWS V13.00,2013-04-20 08:31:00,
2013-04-20 01:36:00,47.0,43.9,30.26,West,267,3.0,6.0,89,0.00,,---,0.00,VWS V13.00,2013-04-20 08:36:00,
2013-04-20 01:41:00,47.0,43.9,30.26,SSW,196,0.0,7.0,89,0.00,,---,0.00,VWS V13.00,2013-04-20 08:41:00,
2013-04-20 01:46:00,47.0,43.9,30.26,SSW,212,1.0,7.0,89,0.00,,---,0.00,VWS V13.00,2013-04-20 08:46:00,
2013-04-20 01:51:00,47.0,43.9,30.26,SW,217,0.0,7.0,89,0.00,,---,0.00,VWS V13.00,2013-04-20 08:51:00,
2013-04-20 01:56:00,47.0,43.9,30.26,SW,222,0.0,7.0,89,0.00,,---,0.00,VWS V13.00,2013-04-20 08:56:00,
2013-04-20 02:01:00,47.0,43.9,30.26,East,79,0.0,7.0,89,0.00,,---,0.00,VWS V13.00,2013-04-20 09:01:00,
2013-04-20 02:06:00,47.0,43.9,30.25,SE,138,0.0,7.0,89,0.00,,---,0.00,VWS V13.00,2013-04-20 09:06:00,
2013-04-20 02:11:00,47.0,43.9,30.25,SSW,195,0.0,3.0,89,0.00,,---,0.00,VWS V13.00,2013-04-20 09:11:00,
2013-04-20 02:16:00,47.0,43.9,30.25,SSW,199,0.0,3.0,89,0.00,,---,0.00,VWS V13.00,2013-04-20 09:16:00,
2013-04-20 02:21:00,47.0,43.9,30.26,SSW,202,0.0,3.0,89,0.00,,---,0.00,VWS V13.00,2013-04-20 09:21:00,
2013-04-20 02:26:00,47.0,43.9,30.26,WSW,240,2.0,3.0,89,0.00,,---,0.00,VWS V13.00,2013-04-20 09:26:00,
2013-04-20 02:31:00,47.0,43.9,30.26,SSW,198,0.0,5.0,89,0.00,,---,0.00,VWS V13.00,2013-04-20 09:31:00,
2013-04-20 02:36:00,47.0,43.9,30.26,East,79,0.0,5.0,89,0.00,,---,0.00,VWS V13.00,2013-04-20 09:36:00,
2013-04-20 02:41:00,47.0,43.9,30.26,SSW,199,0.0,2.0,89,0.00,,---,0.00,VWS V13.00,2013-04-20 09:41:00,
2013-04-20 02:46:00,47.0,43.9,30.26,SW,232,0.0,2.0,89,0.00,,---,0.00,VWS V13.00,2013-04-20 09:46:00,
2013-04-20 02:51:00,46.8,43.7,30.26,North,6,0.0,2.0,89,0.00,,---,0.00,VWS V13.00,2013-04-20 09:51:00,
2013-04-20 02:56:00,46.8,43.7,30.26,SW,226,1.0,2.0,89,0.00,,---,0.00,VWS V13.00,2013-04-20 09:56:00,
2013-04-20 03:01:00,46.8,43.7,30.26,WSW,246,0.0,2.0,89,0.00,,---,0.00,VWS V13.00,2013-04-20 10:01:00,
2013-04-20 03:06:00,46.8,43.7,30.26,WSW,246,0.0,2.0,89,0.00,,---,0.00,VWS V13.00,2013-04-20 10:06:00,
2013-04-20 03:11:00,46.8,43.7,30.26,SSE,151,0.0,0.0,89,0.00,,---,0.00,VWS V13.00,2013-04-20 10:11:00,
2013-04-20 03:16:00,46.7,43.6,30.26,WSW,239,0.0,0.0,89,0.00,,---,0.00,VWS V13.00,2013-04-20 10:16:00,
2013-04-20 03:21:00,46.7,43.6,30.27,WSW,246,0.0,1.0,89,0.00,,---,0.00,VWS V13.00,2013-04-20 10:21:00,
2013-04-20 03:26:00,46.5,43.4,30.27,East,89,0.0,1.0,89,0.00,,---,0.00,VWS V13.00,2013-04-20 10:26:00,
2013-04-20 03:31:00,46.4,43.3,30.27,SSW,198,1.0,1.0,89,0.00,,---,0.00,VWS V13.00,2013-04-20 10:31:00,
2013-04-20 03:36:00,46.4,43.3,30.27,SE,131,0.0,3.0,89,0.00,,---,0.00,VWS V13.00,2013-04-20 10:36:00,
2013-04-20 03:41:00,46.2,43.1,30.27,West,265,0.0,0.0,89,0.00,,---,0.00,VWS V13.00,2013-04-20 10:41:00,
2013-04-20 03:46:00,46.2,42.5,30.27,SE,134,0.0,0.0,87,0.00,,---,0.00,VWS V13.00,2013-04-20 10:46:00,
2013-04-20 03:51:00,46.2,42.5,30.27,SW,229,0.0,0.0,87,0.00,,---,0.00,VWS V13.00,2013-04-20 10:51:00,
2013-04-20 03:56:00,46.2,42.5,30.27,WSW,258,0.0,0.0,87,0.00,,---,0.00,VWS V13.00,2013-04-20 10:56:00,
2013-04-20 04:01:00,46.2,42.5,30.27,SSE,150,0.0,0.0,87,0.00,,---,0.00,VWS V13.00,2013-04-20 11:01:00,
2013-04-20 04:06:00,46.2,42.8,30.27,SW,226,1.0,1.0,88,0.00,,---,0.00,VWS V13.00,2013-04-20 11:06:00,
2013-04-20 04:11:00,46.2,42.8,30.27,SSW,205,3.0,5.0,88,0.00,,---,0.00,VWS V13.00,2013-04-20 11:11:00,
2013-04-20 04:16:00,46.2,42.8,30.27,SW,217,0.0,5.0,88,0.00,,---,0.00,VWS V13.00,2013-04-20 11:16:00,
2013-04-20 04:21:00,46.2,42.8,30.27,SSW,193,1.0,5.0,88,0.00,,---,0.00,VWS V13.00,2013-04-20 11:21:00,
2013-04-20 04:26:00,46.1,42.8,30.27,ENE,72,1.0,5.0,88,0.00,,---,0.00,VWS V13.00,2013-04-20 11:26:00,
2013-04-20 04:31:00,46.1,42.8,30.27,SW,223,2.0,6.0,88,0.00,,---,0.00,VWS V13.00,2013-04-20 11:31:00,
2013-04-20 04:36:00,46.1,42.8,30.27,SSE,168,0.0,6.0,88,0.00,,---,0.00,VWS V13.00,2013-04-20 11:36:00,
2013-04-20 04:41:00,46.0,42.7,30.27,SW,220,0.0,3.0,88,0.00,,---,0.00,VWS V13.00,2013-04-20 11:41:00,
2013-04-20 04:46:00,46.0,42.7,30.27,South,191,0.0,3.0,88,0.00,,---,0.00,VWS V13.00,2013-04-20 11:46:00,
2013-04-20 04:51:00,46.0,42.7,30.27,WSW,254,2.0,3.0,88,0.00,,---,0.00,VWS V13.00,2013-04-20 11:51:00,
2013-04-20 04:56:00,46.0,42.7,30.27,SW,224,0.0,5.0,88,0.00,,---,0.00,VWS V13.00,2013-04-20 11:56:00,
2013-04-20 05:01:00,45.8,42.8,30.27,South,189,0.0,5.0,89,0.00,,---,0.00,VWS V13.00,2013-04-20 12:01:00,
2013-04-20 05:06:00,45.8,42.8,30.28,SSE,167,2.0,5.0,89,0.00,,---,0.00,VWS V13.00,2013-04-20 12:06:00,
2013-04-20 05:11:00,45.8,42.8,30.28,SSW,212,0.0,2.0,89,0.00,,---,0.00,VWS V13.00,2013-04-20 12:11:00,
2013-04-20 05:16:00,45.8,42.8,30.28,SW,224,1.0,2.0,89,0.00,,---,0.00,VWS V13.00,2013-04-20 12:16:00,
2013-04-20 05:21:00,45.8,42.8,30.28,SSE,158,1.0,3.0,89,0.00,,---,0.00,VWS V13.00,2013-04-20 12:21:00,
2013-04-20 05:26:00,45.8,42.8,30.28,SSW,210,0.0,3.0,89,0.00,,---,0.00,VWS V13.00,2013-04-20 12:26:00,
2013-04-20 05:31:00,45.8,42.8,30.28,SW,227,0.0,3.0,89,0.00,,---,0.00,VWS V13.00,2013-04-20 12:31:00,
2013-04-20 05:36:00,45.8,42.8,30.28,SSW,202,0.0,3.0,89,0.00,,---,0.00,VWS V13.00,2013-04-20 12:36:00,
2013-04-20 05:41:00,45.8,43.0,30.28,WSW,241,0.0,0.0,90,0.00,,---,0.00,VWS V13.00,2013-04-20 12:41:00,
2013-04-20 05:46:00,45.8,43.0,30.28,ENE,72,0.0,0.0,90,0.00,,---,0.00,VWS V13.00,2013-04-20 12:46:00,
2013-04-20 05:51:00,45.7,43.2,30.29,SSW,203,0.0,3.0,91,0.00,,---,0.00,VWS V13.00,2013-04-20 12:51:00,
2013-04-20 05:56:00,45.5,43.0,30.29,South,185,0.0,5.0,91,0.00,,---,0.00,VWS V13.00,2013-04-20 12:56:00,
2013-04-20 06:01:00,45.5,43.3,30.29,SSW,203,1.0,5.0,92,0.00,,---,0.00,VWS V13.00,2013-04-20 13:01:00,
2013-04-20 06:06:00,45.4,43.2,30.29,SW,223,0.0,5.0,92,0.00,,---,0.00,VWS V13.00,2013-04-20 13:06:00,
2013-04-20 06:11:00,45.4,43.2,30.29,WSW,240,0.0,5.0,92,0.00,,---,0.00,VWS V13.00,2013-04-20 13:11:00,
2013-04-20 06:16:00,45.2,43.0,30.29,NW,304,0.0,5.0,92,0.00,,---,0.00,VWS V13.00,2013-04-20 13:16:00,
2013-04-20 06:21:00,45.2,43.0,30.29,SW,236,3.0,5.0,92,0.00,,---,0.00,VWS V13.00,2013-04-20 13:21:00,
2013-04-20 06:26:00,45.2,43.0,30.29,SW,216,0.0,5.0,92,0.00,,---,0.00,VWS V13.00,2013-04-20 13:26:00,
2013-04-20 06:31:00,45.2,43.0,30.29,SSW,205,0.0,5.0,92,0.00,,---,0.00,VWS V13.00,2013-04-20 13:31:00,
2013-04-20 06:36:00,45.2,43.0,30.28,SSW,208,1.0,5.0,92,0.00,,---,0.00,VWS V13.00,2013-04-20 13:36:00,
2013-04-20 06:41:00,45.1,42.9,30.28,SSW,213,0.0,1.0,92,0.00,,---,0.00,VWS V13.00,2013-04-20 13:41:00,
2013-04-20 06:46:00,45.1,43.2,30.28,SSW,212,0.0,3.0,93,0.00,,---,0.00,VWS V13.00,2013-04-20 13:46:00,
2013-04-20 06:51:00,44.9,43.0,30.28,WNW,291,5.0,6.0,93,0.00,,---,0.00,VWS V13.00,2013-04-20 13:51:00,
2013-04-20 06:56:00,44.9,43.0,30.28,SSE,148,3.0,6.0,93,0.00,,---,0.00,VWS V13.00,2013-04-20 13:56:00,
2013-04-20 07:01:00,44.9,43.0,30.28,SSW,198,0.0,6.0,93,0.00,,---,0.00,VWS V13.00,2013-04-20 14:01:00,
2013-04-20 07:06:00,44.9,43.0,30.28,SW,230,0.0,6.0,93,0.00,,---,0.00,VWS V13.00,2013-04-20 14:06:00,
2013-04-20 07:10:00,44.9,43.0,30.28,SSW,196,0.0,1.0,93,0.00,,---,0.00,VWS V13.00,2013-04-20 14:10:00,
2013-04-20 07:15:00,45.1,43.2,30.28,South,184,0.0,3.0,93,0.00,,---,0.00,VWS V13.00,2013-04-20 14:15:00,
2013-04-20 07:20:00,45.1,43.2,30.28,SSW,202,0.0,3.0,93,0.00,,---,0.00,VWS V13.00,2013-04-20 14:20:00,
2013-04-20 07:25:00,45.1,43.2,30.28,SSW,210,2.0,5.0,93,0.00,,---,0.00,VWS V13.00,2013-04-20 14:25:00,
2013-04-20 07:30:00,45.1,43.2,30.28,South,175,0.0,10.0,93,0.00,,---,0.00,VWS V13.00,2013-04-20 14:30:00,
2013-04-20 07:35:00,45.1,43.2,30.28,SSW,205,1.0,10.0,93,0.00,,---,0.00,VWS V13.00,2013-04-20 14:35:00,
2013-04-20 07:40:00,45.1,43.2,30.28,SSE,147,0.0,5.0,93,0.00,,---,0.00,VWS V13.00,2013-04-20 14:40:00,
2013-04-20 07:45:00,45.2,43.3,30.28,SSW,212,2.0,5.0,93,0.00,,---,0.00,VWS V13.00,2013-04-20 14:45:00,
2013-04-20 07:50:00,45.2,43.3,30.28,South,172,3.0,6.0,93,0.00,,---,0.00,VWS V13.00,2013-04-20 14:50:00,
2013-04-20 07:55:00,45.4,43.2,30.28,SW,233,2.0,7.0,92,0.00,,---,0.00,VWS V13.00,2013-04-20 14:55:00,
2013-04-20 08:00:00,45.4,43.2,30.28,South,175,7.0,8.0,92,0.00,,---,0.00,VWS V13.00,2013-04-20 15:00:00,
2013-04-20 08:05:00,45.4,43.2,30.29,SW,217,1.0,8.0,92,0.00,,---,0.00,VWS V13.00,2013-04-20 15:05:00,
2013-04-20 08:10:00,45.4,43.2,30.29,SSW,210,1.0,1.0,92,0.00,,---,0.00,VWS V13.00,2013-04-20 15:10:00,
2013-04-20 08:15:00,45.7,43.5,30.29,SSE,158,2.0,5.0,92,0.00,,---,0.00,VWS V13.00,2013-04-20 15:15:00,
2013-04-20 08:20:00,45.7,43.5,30.29,SSW,195,7.0,11.0,92,0.00,,---,0.00,VWS V13.00,2013-04-20 15:20:00,
2013-04-20 08:25:00,45.7,43.5,30.29,SW,219,0.0,11.0,92,0.00,,---,0.00,VWS V13.00,2013-04-20 15:25:00,
2013-04-20 08:30:00,45.7,43.5,30.29,SSE,151,0.0,11.0,92,0.00,,---,0.00,VWS V13.00,2013-04-20 15:30:00,
2013-04-20 08:35:00,45.8,43.6,30.29,SSW,202,6.0,11.0,92,0.00,,---,0.00,VWS V13.00,2013-04-20 15:35:00,
2013-04-20 08:40:00,46.1,43.6,30.29,SSW,210,0.0,8.0,91,0.00,,---,0.00,VWS V13.00,2013-04-20 15:40:00,
2013-04-20 08:45:00,46.4,43.9,30.29,South,179,0.0,8.0,91,0.00,,---,0.00,VWS V13.00,2013-04-20 15:45:00,
2013-04-20 08:50:00,46.5,44.0,30.29,South,191,3.0,8.0,91,0.00,,---,0.00,VWS V13.00,2013-04-20 15:50:00,
2013-04-20 08:55:00,46.7,44.2,30.29,West,264,2.0,8.0,91,0.00,,---,0.00,VWS V13.00,2013-04-20 15:55:00,
2013-04-20 09:00:00,46.8,43.7,30.29,SW,227,0.0,8.0,89,0.00,,---,0.00,VWS V13.00,2013-04-20 16:00:00,
2013-04-20 09:05:00,47.0,43.6,30.29,SW,233,2.0,8.0,88,0.00,,---,0.00,VWS V13.00,2013-04-20 16:05:00,
2013-04-20 09:10:00,47.1,43.7,30.29,WSW,241,0.0,2.0,88,0.00,,---,0.00,VWS V13.00,2013-04-20 16:10:00,
2013-04-20 09:15:00,47.1,43.4,30.29,SW,224,0.0,3.0,87,0.00,,---,0.00,VWS V13.00,2013-04-20 16:15:00,
2013-04-20 09:20:00,47.1,43.4,30.30,SSW,208,0.0,3.0,87,0.00,,---,0.00,VWS V13.00,2013-04-20 16:20:00,
2013-04-20 09:25:00,47.1,43.4,30.30,SW,222,2.0,3.0,87,0.00,,---,0.00,VWS V13.00,2013-04-20 16:25:00,
2013-04-20 09:30:00,47.1,43.4,30.30,SW,222,0.0,3.0,87,0.00,,---,0.00,VWS V13.00,2013-04-20 16:30:00,
2013-04-20 09:35:00,47.1,43.4,30.30,South,179,0.0,3.0,87,0.00,,---,0.00,VWS V13.00,2013-04-20 16:35:00,
2013-04-20 09:40:00,47.1,43.1,30.30,South,188,2.0,2.0,86,0.00,,---,0.00,VWS V13.00,2013-04-20 16:40:00,
2013-04-20 09:45:00,47.1,43.1,30.30,SSE,155,0.0,3.0,86,0.00,,---,0.00,VWS V13.00,2013-04-20 16:45:00,
2013-04-20 09:50:00,47.1,43.1,30.30,SSW,203,0.0,3.0,86,0.00,,---,0.00,VWS V13.00,2013-04-20 16:50:00,
2013-04-20 09:55:00,47.1,43.1,30.30,South,182,0.0,7.0,86,0.00,,---,0.00,VWS V13.00,2013-04-20 16:55:00,
2013-04-20 10:00:00,47.1,42.8,30.30,South,188,0.0,7.0,85,0.00,,---,0.00,VWS V13.00,2013-04-20 17:00:00,
2013-04-20 10:05:00,47.3,43.0,30.30,South,184,0.0,7.0,85,0.00,,---,0.00,VWS V13.00,2013-04-20 17:05:00,
2013-04-20 10:10:00,47.3,43.0,30.30,South,181,0.0,0.0,85,0.00,,---,0.00,VWS V13.00,2013-04-20 17:10:00,
2013-04-20 10:15:00,47.4,43.1,30.30,WSW,243,0.0,2.0,85,0.00,,---,0.00,VWS V13.00,2013-04-20 17:15:00,
2013-04-20 10:20:00,47.4,43.1,30.31,SW,226,0.0,3.0,85,0.00,,---,0.00,VWS V13.00,2013-04-20 17:20:00,
2013-04-20 10:25:00,47.6,43.3,30.31,WSW,246,0.0,3.0,85,0.00,,---,0.00,VWS V13.00,2013-04-20 17:25:00,
2013-04-20 10:30:00,47.7,43.4,30.31,SSW,202,2.0,3.0,85,0.00,,---,0.00,VWS V13.00,2013-04-20 17:30:00,
2013-04-20 10:35:00,48.0,43.7,30.30,SSW,205,0.0,5.0,85,0.00,,---,0.00,VWS V13.00,2013-04-20 17:35:00,
2013-04-20 10:40:00,48.2,43.9,30.30,SSW,193,1.0,7.0,85,0.00,,---,0.00,VWS V13.00,2013-04-20 17:40:00,
2013-04-20 10:45:00,48.2,43.9,30.30,South,174,0.0,7.0,85,0.00,,---,0.00,VWS V13.00,2013-04-20 17:45:00,
2013-04-20 10:50:00,48.2,43.6,30.31,SW,217,3.0,7.0,84,0.00,,---,0.00,VWS V13.00,2013-04-20 17:50:00,
2013-04-20 10:55:00,48.0,43.4,30.31,WSW,243,0.0,7.0,84,0.00,,---,0.00,VWS V13.00,2013-04-20 17:55:00,
2013-04-20 11:00:00,48.0,43.4,30.31,SSW,196,0.0,7.0,84,0.00,,---,0.00,VWS V13.00,2013-04-20 18:00:00,
2013-04-20 11:05:00,48.0,44.0,30.31,SW,219,3.0,7.0,86,0.00,,---,0.00,VWS V13.00,2013-04-20 18:05:00,
2013-04-20 11:10:00,47.9,43.9,30.31,West,268,0.0,7.0,86,0.00,,---,0.00,VWS V13.00,2013-04-20 18:10:00,
2013-04-20 11:15:00,47.9,43.9,30.31,WSW,241,0.0,7.0,86,0.00,,---,0.00,VWS V13.00,2013-04-20 18:15:00,
2013-04-20 11:20:00,48.0,44.0,30.31,WSW,239,1.0,7.0,86,0.00,,---,0.00,VWS V13.00,2013-04-20 18:20:00,
2013-04-20 11:25:00,48.0,44.0,30.31,SW,216,1.0,7.0,86,0.00,,---,0.00,VWS V13.00,2013-04-20 18:25:00,
2013-04-20 11:30:00,48.0,44.0,30.31,SSW,212,0.0,7.0,86,0.00,,---,0.00,VWS V13.00,2013-04-20 18:30:00,
2013-04-20 11:35:00,48.2,43.9,30.31,SSE,164,0.0,9.0,85,0.00,,---,0.00,VWS V13.00,2013-04-20 18:35:00,
2013-04-20 11:40:00,48.5,44.2,30.32,SW,222,0.0,4.0,85,0.00,,---,0.00,VWS V13.00,2013-04-20 18:40:00,
2013-04-20 11:45:00,48.6,44.3,30.32,SW,223,2.0,10.0,85,0.00,,---,0.00,VWS V13.00,2013-04-20 18:45:00,
2013-04-20 11:50:00,48.8,44.2,30.32,South,186,1.0,10.0,84,0.00,,---,0.00,VWS V13.00,2013-04-20 18:50:00,
2013-04-20 11:55:00,49.1,44.5,30.32,SSW,195,0.0,10.0,84,0.00,,---,0.00,VWS V13.00,2013-04-20 18:55:00,
2013-04-20 12:00:00,49.4,44.5,30.32,West,265,3.0,10.0,83,0.00,,---,0.00,VWS V13.00,2013-04-20 19:00:00,
2013-04-20 12:05:00,49.5,44.2,30.32,SSW,206,0.0,10.0,82,0.00,,---,0.00,VWS V13.00,2013-04-20 19:05:00,
2013-04-20 12:10:00,49.8,44.2,30.32,WSW,239,2.0,7.0,81,0.00,,---,0.00,VWS V13.00,2013-04-20 19:10:00,
2013-04-20 12:15:00,50.1,44.8,30.32,SSE,158,0.0,7.0,82,0.00,,---,0.00,VWS V13.00,2013-04-20 19:15:00,
2013-04-20 12:20:00,50.1,44.8,30.32,South,184,5.0,8.0,82,0.00,,---,0.00,VWS V13.00,2013-04-20 19:20:00,
2013-04-20 12:25:00,50.2,44.9,30.31,SSE,167,5.0,8.0,82,0.00,,---,0.00,VWS V13.00,2013-04-20 19:25:00,
2013-04-20 12:30:00,50.2,44.9,30.31,South,188,0.0,8.0,82,0.00,,---,0.00,VWS V13.00,2013-04-20 19:30:00,
2013-04-20 12:35:00,50.5,45.2,30.31,SSW,192,0.0,8.0,82,0.00,,---,0.00,VWS V13.00,2013-04-20 19:35:00,
2013-04-20 12:40:00,50.8,45.5,30.30,SSW,195,7.0,7.0,82,0.00,,---,0.00,VWS V13.00,2013-04-20 19:40:00,
2013-04-20 12:45:00,50.8,44.5,30.30,SW,226,3.0,7.0,79,0.00,,---,0.00,VWS V13.00,2013-04-20 19:45:00,
2013-04-20 12:50:00,51.0,44.7,30.30,SW,220,1.0,7.0,79,0.00,,---,0.00,VWS V13.00,2013-04-20 19:50:00,
2013-04-20 12:55:00,51.1,44.8,30.30,West,264,1.0,7.0,79,0.00,,---,0.00,VWS V13.00,2013-04-20 19:55:00,
2013-04-20 13:00:00,51.3,45.0,30.30,SSW,208,2.0,7.0,79,0.00,,---,0.00,VWS V13.00,2013-04-20 20:00:00,
2013-04-20 13:05:00,51.3,44.3,30.30,SW,233,2.0,7.0,77,0.00,,---,0.00,VWS V13.00,2013-04-20 20:05:00,
2013-04-20 13:10:00,51.3,44.0,30.30,SSW,213,0.0,5.0,76,0.00,,---,0.00,VWS V13.00,2013-04-20 20:10:00,
2013-04-20 13:15:00,51.3,44.0,30.30,South,191,0.0,5.0,76,0.00,,---,0.00,VWS V13.00,2013-04-20 20:15:00,
2013-04-20 13:20:00,51.3,44.0,30.30,SSW,193,0.0,5.0,76,0.00,,---,0.00,VWS V13.00,2013-04-20 20:20:00,
2013-04-20 13:25:00,51.3,44.0,30.30,South,169,2.0,5.0,76,0.00,,---,0.00,VWS V13.00,2013-04-20 20:25:00,
2013-04-20 13:30:00,51.3,44.0,30.30,West,268,0.0,5.0,76,0.00,,---,0.00,VWS V13.00,2013-04-20 20:30:00,
2013-04-20 13:35:00,51.4,44.4,30.30,SSW,203,0.0,5.0,77,0.00,,---,0.00,VWS V13.00,2013-04-20 20:35:00,
2013-04-20 13:40:00,51.6,44.6,30.30,South,172,0.0,6.0,77,0.00,,---,0.00,VWS V13.00,2013-04-20 20:40:00,
2013-04-20 13:45:00,51.7,44.4,30.30,SW,217,0.0,6.0,76,0.00,,---,0.00,VWS V13.00,2013-04-20 20:45:00,
2013-04-20 13:50:00,51.9,44.6,30.30,South,186,0.0,6.0,76,0.00,,---,0.00,VWS V13.00,2013-04-20 20:50:00,
2013-04-20 13:55:00,52.0,44.3,30.29,SW,233,3.0,8.0,75,0.00,,---,0.00,VWS V13.00,2013-04-20 20:55:00,
2013-04-20 14:00:00,52.0,44.7,30.29,South,175,2.0,8.0,76,0.00,,---,0.00,VWS V13.00,2013-04-20 21:00:00,
2013-04-20 14:05:00,51.7,44.4,30.29,SSW,205,5.0,8.0,76,0.00,,---,0.00,VWS V13.00,2013-04-20 21:05:00,
2013-04-20 14:10:00,51.6,44.3,30.29,SW,220,0.0,5.0,76,0.00,,---,0.00,VWS V13.00,2013-04-20 21:10:00,
2013-04-20 14:15:00,51.4,44.1,30.29,SSW,206,3.0,6.0,76,0.00,,---,0.00,VWS V13.00,2013-04-20 21:15:00,
2013-04-20 14:20:00,51.3,44.3,30.29,South,178,0.0,6.0,77,0.00,,---,0.00,VWS V13.00,2013-04-20 21:20:00,
2013-04-20 14:25:00,51.4,44.8,30.29,SW,216,1.0,6.0,78,0.00,,---,0.00,VWS V13.00,2013-04-20 21:25:00,
2013-04-20 14:30:00,51.4,44.8,30.29,SW,233,1.0,6.0,78,0.00,,---,0.00,VWS V13.00,2013-04-20 21:30:00,
2013-04-20 14:35:00,51.6,45.0,30.29,SSW,192,0.0,6.0,78,0.00,,---,0.00,VWS V13.00,2013-04-20 21:35:00,
2013-04-20 14:40:00,51.9,45.6,30.28,SSW,200,0.0,3.0,79,0.00,,---,0.00,VWS V13.00,2013-04-20 21:40:00,
2013-04-20 14:45:00,51.9,45.6,30.28,SW,226,0.0,3.0,79,0.00,,---,0.00,VWS V13.00,2013-04-20 21:45:00,
2013-04-20 14:50:00,51.9,45.6,30.28,SW,229,0.0,3.0,79,0.00,,---,0.00,VWS V13.00,2013-04-20 21:50:00,
2013-04-20 14:55:00,52.0,45.7,30.28,South,186,0.0,3.0,79,0.00,,---,0.00,VWS V13.00,2013-04-20 21:55:00,
2013-04-20 15:00:00,52.2,45.9,30.28,South,174,0.0,3.0,79,0.00,,---,0.00,VWS V13.00,2013-04-20 22:00:00,
2013-04-20 15:05:00,52.3,46.0,30.28,SW,230,1.0,3.0,79,0.00,,---,0.00,VWS V13.00,2013-04-20 22:05:00,
2013-04-20 15:10:00,52.3,45.3,30.28,SW,219,0.0,7.0,77,0.00,,---,0.00,VWS V13.00,2013-04-20 22:10:00,
2013-04-20 15:15:00,52.3,45.0,30.28,SSW,192,9.0,9.0,76,0.00,,---,0.00,VWS V13.00,2013-04-20 22:15:00,
2013-04-20 15:20:00,52.3,45.0,30.28,SSW,202,3.0,9.0,76,0.00,,---,0.00,VWS V13.00,2013-04-20 22:20:00,
2013-04-20 15:25:00,52.5,45.2,30.28,SSW,212,2.0,9.0,76,0.00,,---,0.00,VWS V13.00,2013-04-20 22:25:00,
2013-04-20 15:30:00,52.8,44.8,30.28,SSW,213,0.0,9.0,74,0.00,,---,0.00,VWS V13.00,2013-04-20 22:30:00,
2013-04-20 15:35:00,52.9,45.5,30.28,SSE,148,0.0,9.0,76,0.00,,---,0.00,VWS V13.00,2013-04-20 22:35:00,
2013-04-20 15:40:00,53.1,45.8,30.28,SSE,165,0.0,0.0,76,0.00,,---,0.00,VWS V13.00,2013-04-20 22:40:00,
2013-04-20 15:45:00,53.2,45.1,30.28,South,171,0.0,3.0,74,0.00,,---,0.00,VWS V13.00,2013-04-20 22:45:00,
2013-04-20 15:50:00,53.2,45.1,30.28,SSW,196,0.0,3.0,74,0.00,,---,0.00,VWS V13.00,2013-04-20 22:50:00,
2013-04-20 15:55:00,53.2,45.1,30.28,SSW,196,0.0,3.0,74,0.00,,---,0.00,VWS V13.00,2013-04-20 22:55:00,
2013-04-20 16:00:00,53.3,45.2,30.28,SSE,167,0.0,3.0,74,0.00,,---,0.00,VWS V13.00,2013-04-20 23:00:00,
2013-04-20 16:05:00,53.5,45.4,30.28,SE,137,0.0,3.0,74,0.00,,---,0.00,VWS V13.00,2013-04-20 23:05:00,
2013-04-20 16:10:00,53.6,45.5,30.28,SE,137,0.0,0.0,74,0.00,,---,0.00,VWS V13.00,2013-04-20 23:10:00,
2013-04-20 16:15:00,53.9,45.1,30.28,SSE,157,0.0,0.0,72,0.00,,---,0.00,VWS V13.00,2013-04-20 23:15:00,
2013-04-20 16:20:00,54.1,44.9,30.28,NNW,343,0.0,2.0,71,0.00,,---,0.00,VWS V13.00,2013-04-20 23:20:00,
2013-04-20 16:25:00,54.4,45.2,30.27,North,0,1.0,2.0,71,0.00,,---,0.00,VWS V13.00,2013-04-20 23:25:00,
2013-04-20 16:30:00,54.5,44.9,30.27,WNW,287,0.0,2.0,70,0.00,,---,0.00,VWS V13.00,2013-04-20 23:30:00,
2013-04-20 16:35:00,54.7,44.7,30.27,West,267,0.0,2.0,69,0.00,,---,0.00,VWS V13.00,2013-04-20 23:35:00,
2013-04-20 16:40:00,54.7,44.7,30.27,West,267,0.0,1.0,69,0.00,,---,0.00,VWS V13.00,2013-04-20 23:40:00,
2013-04-20 16:45:00,54.8,46.0,30.27,West,265,0.0,1.0,72,0.00,,---,0.00,VWS V13.00,2013-04-20 23:45:00,
2013-04-20 16:50:00,54.8,44.8,30.27,WNW,294,0.0,1.0,69,0.00,,---,0.00,VWS V13.00,2013-04-20 23:50:00,
2013-04-20 16:55:00,54.8,44.8,30.27,WNW,294,0.0,1.0,69,0.00,,---,0.00,VWS V13.00,2013-04-20 23:55:00,
2013-04-20 17:00:00,55.0,45.0,30.27,WNW,295,0.0,1.0,69,0.00,,---,0.00,VWS V13.00,2013-04-21 00:00:00,
2013-04-20 17:05:00,55.0,45.4,30.27,NW,306,0.0,1.0,70,0.00,,---,0.00,VWS V13.00,2013-04-21 00:05:00,
2013-04-20 17:10:00,55.0,45.8,30.27,NW,306,0.0,0.0,71,0.00,,---,0.00,VWS V13.00,2013-04-21 00:10:00,
2013-04-20 17:15:00,55.0,45.8,30.27,NW,323,0.0,2.0,71,0.00,,---,0.00,VWS V13.00,2013-04-21 00:15:00,
2013-04-20 17:20:00,55.0,45.8,30.27,NW,323,0.0,2.0,71,0.00,,---,0.00,VWS V13.00,2013-04-21 00:20:00,
2013-04-20 17:25:00,54.8,45.6,30.27,NW,323,0.0,2.0,71,0.00,,---,0.00,VWS V13.00,2013-04-21 00:25:00,
2013-04-20 17:30:00,54.7,45.5,30.27,WSW,247,0.0,2.0,71,0.00,,---,0.00,VWS V13.00,2013-04-21 00:30:00,
2013-04-20 17:35:00,54.7,45.5,30.27,North,357,1.0,2.0,71,0.00,,---,0.00,VWS V13.00,2013-04-21 00:35:00,
2013-04-20 17:40:00,54.5,45.3,30.26,WSW,246,1.0,2.0,71,0.00,,---,0.00,VWS V13.00,2013-04-21 00:40:00,
2013-04-20 17:45:00,54.5,45.3,30.26,NNW,330,0.0,2.0,71,0.00,,---,0.00,VWS V13.00,2013-04-21 00:45:00,
2013-04-20 17:50:00,54.4,44.1,30.26,North,0,0.0,2.0,68,0.00,,---,0.00,VWS V13.00,2013-04-21 00:50:00,
2013-04-20 17:55:00,54.4,44.1,30.27,WSW,246,0.0,2.0,68,0.00,,---,0.00,VWS V13.00,2013-04-21 00:55:00,
2013-04-20 18:00:00,54.4,44.5,30.27,WSW,246,0.0,2.0,69,0.00,,---,0.00,VWS V13.00,2013-04-21 01:00:00,
2013-04-20 18:05:00,54.4,44.1,30.27,WSW,243,0.0,2.0,68,0.00,,---,0.00,VWS V13.00,2013-04-21 01:05:00,
2013-04-20 18:10:00,54.1,43.8,30.27,WSW,243,0.0,0.0,68,0.00,,---,0.00,VWS V13.00,2013-04-21 01:10:00,
2013-04-20 18:15:00,53.9,44.0,30.27,South,179,0.0,1.0,69,0.00,,---,0.00,VWS V13.00,2013-04-21 01:15:00,
2013-04-20 18:20:00,53.8,43.9,30.27,WSW,246,0.0,2.0,69,0.00,,---,0.00,VWS V13.00,2013-04-21 01:20:00,
2013-04-20 18:25:00,53.5,43.6,30.27,WSW,248,0.0,2.0,69,0.00,,---,0.00,VWS V13.00,2013-04-21 01:25:00,
2013-04-20 18:30:00,53.3,43.4,30.27,WSW,248,0.0,2.0,69,0.00,,---,0.00,VWS V13.00,2013-04-21 01:30:00,
2013-04-20 18:35:00,53.2,43.3,30.27,West,270,0.0,2.0,69,0.00,,---,0.00,VWS V13.00,2013-04-21 01:35:00,
2013-04-20 18:40:00,53.1,43.6,30.27,WNW,282,0.0,0.0,70,0.00,,---,0.00,VWS V13.00,2013-04-21 01:40:00,
2013-04-20 18:45:00,53.1,44.0,30.27,South,186,0.0,1.0,71,0.00,,---,0.00,VWS V13.00,2013-04-21 01:45:00,
2013-04-20 18:50:00,52.9,43.8,30.27,WSW,247,0.0,2.0,71,0.00,,---,0.00,VWS V13.00,2013-04-21 01:50:00,
2013-04-20 18:55:00,52.9,43.4,30.27,South,186,0.0,2.0,70,0.00,,---,0.00,VWS V13.00,2013-04-21 01:55:00,
2013-04-20 19:00:00,52.6,42.7,30.27,SW,223,0.0,5.0,69,0.00,,---,0.00,VWS V13.00,2013-04-21 02:00:00,
2013-04-20 19:05:00,52.3,42.5,30.27,SSW,209,0.0,5.0,69,0.00,,---,0.00,VWS V13.00,2013-04-21 02:05:00,
2013-04-20 19:10:00,52.2,42.7,30.27,ESE,103,2.0,2.0,70,0.00,,---,0.00,VWS V13.00,2013-04-21 02:10:00,
2013-04-20 19:15:00,51.9,42.4,30.27,SSE,157,0.0,2.0,70,0.00,,---,0.00,VWS V13.00,2013-04-21 02:15:00,
2013-04-20 19:20:00,51.7,42.2,30.27,SSE,157,0.0,2.0,70,0.00,,---,0.00,VWS V13.00,2013-04-21 02:20:00,
2013-04-20 19:25:00,51.4,42.7,30.27,SSW,192,2.0,3.0,72,0.00,,---,0.00,VWS V13.00,2013-04-21 02:25:00,
2013-04-20 19:30:00,51.1,42.4,30.27,South,182,0.0,3.0,72,0.00,,---,0.00,VWS V13.00,2013-04-21 02:30:00,
2013-04-20 19:35:00,51.0,42.7,30.27,South,181,0.0,3.0,73,0.00,,---,0.00,VWS V13.00,2013-04-21 02:35:00,
2013-04-20 19:39:00,50.7,42.7,30.28,WNW,291,0.0,2.0,74,0.00,,---,0.00,VWS V13.00,2013-04-21 02:39:00,
2013-04-20 19:44:00,50.4,42.4,30.28,SSE,160,0.0,2.0,74,0.00,,---,0.00,VWS V13.00,2013-04-21 02:44:00,
2013-04-20 19:49:00,50.2,42.2,30.28,SW,215,0.0,2.0,74,0.00,,---,0.00,VWS V13.00,2013-04-21 02:49:00,
2013-04-20 19:54:00,50.1,42.2,30.29,SW,215,0.0,2.0,74,0.00,,---,0.00,VWS V13.00,2013-04-21 02:54:00,
2013-04-20 19:59:00,49.9,42.3,30.29,SW,215,0.0,2.0,75,0.00,,---,0.00,VWS V13.00,2013-04-21 02:59:00,
2013-04-20 20:04:00,49.8,42.5,30.29,South,172,4.0,4.0,76,0.00,,---,0.00,VWS V13.00,2013-04-21 03:04:00,
2013-04-20 20:09:00,49.6,42.4,30.29,SSE,165,1.0,6.0,76,0.00,,---,0.00,VWS V13.00,2013-04-21 03:09:00,
2013-04-20 20:14:00,49.4,42.2,30.29,SSW,213,0.0,6.0,76,0.00,,---,0.00,VWS V13.00,2013-04-21 03:14:00,
2013-04-20 20:19:00,49.2,42.0,30.29,SW,222,0.0,6.0,76,0.00,,---,0.00,VWS V13.00,2013-04-21 03:19:00,
2013-04-20 20:24:00,49.1,42.5,30.29,SW,232,0.0,6.0,78,0.00,,---,0.00,VWS V13.00,2013-04-21 03:24:00,
2013-04-20 20:29:00,48.9,42.3,30.29,SE,124,0.0,6.0,78,0.00,,---,0.00,VWS V13.00,2013-04-21 03:29:00,
2013-04-20 20:34:00,48.8,42.3,30.29,SSW,206,0.0,8.0,78,0.00,,---,0.00,VWS V13.00,2013-04-21 03:34:00,
2013-04-20 20:39:00,48.6,42.1,30.29,SSE,147,2.0,7.0,78,0.00,,---,0.00,VWS V13.00,2013-04-21 03:39:00,
2013-04-20 20:44:00,48.5,42.0,30.29,South,186,0.0,7.0,78,0.00,,---,0.00,VWS V13.00,2013-04-21 03:44:00,
2013-04-20 20:49:00,48.3,41.8,30.29,SE,140,0.0,7.0,78,0.00,,---,0.00,VWS V13.00,2013-04-21 03:49:00,
2013-04-20 20:54:00,48.2,42.3,30.30,SSW,203,0.0,7.0,80,0.00,,---,0.00,VWS V13.00,2013-04-21 03:54:00,
2013-04-20 20:59:00,48.2,42.3,30.30,SSW,203,0.0,7.0,80,0.00,,---,0.00,VWS V13.00,2013-04-21 03:59:00,
2013-04-20 21:01:00,48.0,42.1,30.30,SW,219,0.0,7.0,80,0.00,,---,0.00,VWS V13.00,2013-04-21 04:01:00,
2013-04-20 21:06:00,48.0,42.5,30.30,SW,219,0.0,7.0,81,0.00,,---,0.00,VWS V13.00,2013-04-21 04:06:00,
2013-04-20 21:11:00,47.9,42.4,30.30,SW,223,0.0,3.0,81,0.00,,---,0.00,VWS V13.00,2013-04-21 04:11:00,
2013-04-20 21:16:00,47.7,42.2,30.30,SSW,199,5.0,5.0,81,0.00,,---,0.00,VWS V13.00,2013-04-21 04:16:00,
2013-04-20 21:21:00,47.7,42.5,30.30,SSE,168,0.0,5.0,82,0.00,,---,0.00,VWS V13.00,2013-04-21 04:21:00,
2013-04-20 21:26:00,47.6,42.4,30.30,South,188,0.0,5.0,82,0.00,,---,0.00,VWS V13.00,2013-04-21 04:26:00,
2013-04-20 21:31:00,47.4,42.2,30.30,South,178,0.0,5.0,82,0.00,,---,0.00,VWS V13.00,2013-04-21 04:31:00,
2013-04-20 21:36:00,47.4,42.5,30.30,SW,226,2.0,8.0,83,0.00,,---,0.00,VWS V13.00,2013-04-21 04:36:00,
2013-04-20 21:41:00,47.3,42.4,30.30,SW,217,0.0,5.0,83,0.00,,---,0.00,VWS V13.00,2013-04-21 04:41:00,
2013-04-20 21:46:00,47.3,42.4,30.30,SSE,168,2.0,5.0,83,0.00,,---,0.00,VWS V13.00,2013-04-21 04:46:00,
2013-04-20 21:51:00,47.1,42.2,30.31,SW,219,0.0,5.0,83,0.00,,---,0.00,VWS V13.00,2013-04-21 04:51:00,
2013-04-20 21:56:00,47.1,42.5,30.31,South,181,0.0,5.0,84,0.00,,---,0.00,VWS V13.00,2013-04-21 04:56:00,
2013-04-20 22:01:00,47.0,42.4,30.31,WSW,256,0.0,5.0,84,0.00,,---,0.00,VWS V13.00,2013-04-21 05:01:00,
2013-04-20 22:06:00,46.8,42.2,30.31,South,181,0.0,5.0,84,0.00,,---,0.00,VWS V13.00,2013-04-21 05:06:00,
2013-04-20 22:11:00,46.7,42.1,30.31,South,185,0.0,7.0,84,0.00,,---,0.00,VWS V13.00,2013-04-21 05:11:00,
2013-04-20 22:16:00,46.7,42.1,30.31,SSE,158,2.0,7.0,84,0.00,,---,0.00,VWS V13.00,2013-04-21 05:16:00,
2013-04-20 22:21:00,46.5,42.2,30.31,SW,232,0.0,7.0,85,0.00,,---,0.00,VWS V13.00,2013-04-21 05:21:00,
2013-04-20 22:26:00,46.4,42.1,30.31,WSW,244,1.0,7.0,85,0.00,,---,0.00,VWS V13.00,2013-04-21 05:26:00,
2013-04-20 22:31:00,46.4,42.1,30.31,SW,216,0.0,7.0,85,0.00,,---,0.00,VWS V13.00,2013-04-21 05:31:00,
2013-04-20 22:36:00,46.2,42.0,30.31,South,172,0.0,7.0,85,0.00,,---,0.00,VWS V13.00,2013-04-21 05:36:00,
2013-04-20 22:41:00,46.2,42.0,30.31,SW,220,0.0,2.0,85,0.00,,---,0.00,VWS V13.00,2013-04-21 05:41:00,
2013-04-20 22:46:00,46.2,42.0,30.31,SW,216,0.0,3.0,85,0.00,,---,0.00,VWS V13.00,2013-04-21 05:46:00,
2013-04-20 22:51:00,46.1,41.8,30.30,SSE,148,0.0,3.0,85,0.00,,---,0.00,VWS V13.00,2013-04-21 05:51:00,
2013-04-20 22:56:00,46.1,41.8,30.30,SSW,199,0.0,4.0,85,0.00,,---,0.00,VWS V13.00,2013-04-21 05:56:00,
2013-04-20 23:01:00,46.1,41.8,30.30,SSE,162,0.0,4.0,85,0.00,,---,0.00,VWS V13.00,2013-04-21 06:01:00,
2013-04-20 23:06:00,46.1,41.8,30.31,South,172,0.0,4.0,85,0.00,,---,0.00,VWS V13.00,2013-04-21 06:06:00,
2013-04-20 23:11:00,46.1,41.8,30.31,WSW,239,6.0,6.0,85,0.00,,---,0.00,VWS V13.00,2013-04-21 06:11:00,
2013-04-20 23:16:00,46.1,41.8,30.31,SSW,205,0.0,6.0,85,0.00,,---,0.00,VWS V13.00,2013-04-21 06:16:00,
2013-04-20 23:21:00,46.1,41.8,30.31,South,184,0.0,6.0,85,0.00,,---,0.00,VWS V13.00,2013-04-21 06:21:00,
2013-04-20 23:26:00,46.1,41.8,30.31,NNE,27,0.0,6.0,85,0.00,,---,0.00,VWS V13.00,2013-04-21 06:26:00,
2013-04-20 23:31:00,46.1,41.8,30.31,WSW,239,0.0,6.0,85,0.00,,---,0.00,VWS V13.00,2013-04-21 06:31:00,
2013-04-20 23:36:00,46.0,41.8,30.30,SW,223,0.0,6.0,85,0.00,,---,0.00,VWS V13.00,2013-04-21 06:36:00,
2013-04-20 23:41:00,46.0,41.8,30.30,SW,223,0.0,0.0,85,0.00,,---,0.00,VWS V13.00,2013-04-21 06:41:00,
2013-04-20 23:46:00,46.0,41.8,30.30,SW,223,0.0,0.0,85,0.00,,---,0.00,VWS V13.00,2013-04-21 06:46:00,
2013-04-20 23:51:00,45.8,41.5,30.30,East,92,0.0,5.0,85,0.00,,---,0.00,VWS V13.00,2013-04-21 06:51:00,
2013-04-20 23:56:00,45.8,41.5,30.30,East,92,0.0,5.0,85,0.00,,---,0.00,VWS V13.00,2013-04-21 06:56:00,